FW3579 Weather Reports


time (UTC)temp
C
wind
direction
speed
KPH
gust
KPH
rain 1hr
cm
rain 24hr
cm
rain mn
cm
humidity
%
barometer
mb
20260510113014 16 360 11.3 24.1 0.00 0.00 0.00 50 1018.2
20260510111512 16 360 11.3 27.4 0.00 0.00 0.00 50 1018.3
20260510110012 15 360 11.3 22.5 0.00 0.00 0.00 51 1018.5
20260510104509 15 360 12.9 30.6 0.00 0.00 0.00 51 1018.6
20260510103008 15 360 11.3 20.9 0.00 0.00 0.00 52 1018.6
20260510101509 15 360 11.3 22.5 0.00 0.00 0.00 51 1018.7
20260510100005 15 360 9.7 27.4 0.00 0.00 0.00 51 1019.0
20260510094504 15 360 12.9 24.1 0.00 0.00 0.00 50 1019.0
20260510093002 15 360 12.9 29.0 0.00 0.00 0.00 50 1019.1
20260510091559 15 360 9.7 25.7 0.00 0.00 0.00 50 1019.3
20260510090100 15 360 9.7 24.1 0.00 0.00 0.00 50 1019.3
20260510084558 15 360 8.0 27.4 0.00 0.00 0.00 50 1019.2
20260510083056 14 360 11.3 25.7 0.00 0.00 0.00 51 1019.4
20260510081554 14 69 8.0 29.0 0.00 0.00 0.00 50 1019.5
20260510080059 15 360 11.3 20.9 0.00 0.00 0.00 46 1019.5
20260510074601 14 26 8.0 22.5 0.00 0.00 0.00 44 1019.5
20260510073049 14 78 12.9 22.5 0.00 0.00 0.00 44 1019.6
20260510071545 13 360 11.3 24.1 0.00 0.00 0.00 45 1019.8
20260510070052 13 360 11.3 19.3 0.00 0.00 0.00 46 1019.7
20260510064538 12 360 9.7 24.1 0.00 0.00 0.00 46 1019.7
20260510063039 12 65 6.4 19.3 0.00 0.00 0.00 48 1019.6
20260510061531 11 360 8.0 17.7 0.00 0.00 0.00 49 1019.7
20260510060032 11 360 6.4 17.7 0.00 0.00 0.00 53 1019.8
20260510054525 11 69 4.8 14.5 0.00 0.00 0.00 56 1019.8
20260510053023 10 360 4.8 14.5 0.00 0.00 0.00 57 1019.7
20260510051522 10 360 4.8 9.7 0.00 0.00 0.00 58 1019.8
20260510050020 10 360 4.8 9.7 0.00 0.00 0.00 58 1019.5
20260510044518 10 38 3.2 6.4 0.00 0.00 0.00 58 1019.7
20260510043017 10 360 3.2 9.7 0.00 0.00 0.00 58 1019.8
20260510041514 10 55 6.4 12.9 0.00 0.00 0.00 58 1019.6
20260510040016 10 360 6.4 14.5 0.00 0.00 0.00 60 1019.6
20260510034513 10 360 4.8 12.9 0.00 0.00 0.00 61 1019.6
20260510033011 10 360 6.4 17.7 0.00 0.00 0.00 62 1019.5
20260510031508 10 40 4.8 14.5 0.00 0.00 0.00 62 1019.7
20260510030006 10 42 6.4 9.7 0.00 0.00 0.00 61 1019.8
20260510024505 10 51 4.8 9.7 0.00 0.00 0.00 61 1019.9
20260510023002 10 360 6.4 9.7 0.00 0.00 0.00 60 1020.0
20260510021600 10 55 4.8 12.9 0.00 0.00 0.00 59 1020.1
20260510020006 11 54 3.2 9.7 0.00 0.00 0.00 57 1020.1
20260510014501 10 71 4.8 9.7 0.00 0.00 0.00 56 1020.2
20260510013001 10 49 6.4 11.3 0.00 0.00 0.00 56 1020.2
20260510011502 10 23 3.2 9.7 0.00 0.00 0.00 56 1020.1
20260510010103 11 360 3.2 9.7 0.00 0.00 0.00 56 1020.3
20260510004559 11 63 3.2 8.0 0.00 0.00 0.00 56 1020.2
20260510003104 11 360 3.2 12.9 0.00 0.00 0.00 56 1020.5
20260510001556 11 60 3.2 6.4 0.00 0.00 0.00 56 1020.6
20260510000100 11 61 3.2 8.0 0.00 0.00 0.00 55 1020.8
20260509234608 11 360 3.2 9.7 0.00 0.00 0.00 55 1020.7
20260509233057 11 360 4.8 9.7 0.00 0.00 0.00 55 1020.8
20260509231557 12 53 4.8 11.3 0.00 0.00 0.00 54 1020.9
20260509230057 12 360 6.4 12.9 0.00 0.00 0.00 54 1020.8
20260509224555 11 360 4.8 9.7 0.00 0.00 0.00 55 1021.0
20260509223059 12 360 3.2 9.7 0.00 0.00 0.00 55 1021.0
20260509221553 12 360 4.8 9.7 0.00 0.00 0.00 56 1021.0
20260509214550 12 71 3.2 8.0 0.00 0.00 0.00 55 1020.7
20260509213048 12 75 3.2 9.7 0.00 0.00 0.00 55 1020.8
20260509211550 12 26 4.8 9.7 0.00 0.00 0.00 55 1020.8
20260509210024 12 42 3.2 12.9 0.00 0.00 0.00 54 1020.7
20260509204529 12 34 4.8 12.9 0.00 0.00 0.00 54 1020.8
20260509203019 12 360 4.8 9.7 0.00 0.00 0.00 53 1020.7
20260509201517 13 360 3.2 12.9 0.00 0.00 0.00 53 1020.7
20260509200016 13 34 4.8 9.7 0.00 0.00 0.00 52 1020.7
20260509194515 13 42 4.8 12.9 0.00 0.00 0.00 52 1020.6
20260509193025 13 27 4.8 14.5 0.00 0.00 0.00 51 1020.5
20260509191514 14 28 4.8 22.5 0.00 0.00 0.00 49 1020.6
20260509190012 15 44 4.8 17.7 0.00 0.00 0.00 47 1020.4
20260509184511 15 33 4.8 14.5 0.00 0.00 0.00 43 1020.3
20260509183007 16 360 6.4 14.5 0.00 0.00 0.00 38 1020.0
20260509181506 16 360 6.4 19.3 0.00 0.00 0.00 35 1019.8
20260509180005 16 26 6.4 17.7 0.00 0.00 0.00 35 1019.9
20260509174504 17 360 6.4 19.3 0.00 0.00 0.00 38 1019.7
20260509173003 17 360 6.4 17.7 0.00 0.00 0.00 37 1019.8
20260509171506 17 63 4.8 14.5 0.00 0.00 0.00 36 1020.0
20260509170004 17 360 6.4 17.7 0.00 0.00 0.00 37 1020.1
20260509164501 18 360 6.4 17.7 0.00 0.00 0.00 38 1020.1
20260509163006 18 48 6.4 17.7 0.00 0.00 0.00 38 1020.1
20260509161501 18 47 6.4 19.3 0.00 0.00 0.00 38 1020.1
20260509160002 18 360 1.6 14.5 0.00 0.00 0.00 40 1020.0
20260509154501 19 360 3.2 12.9 0.00 0.00 0.00 40 1020.0
20260509153007 19 46 6.4 20.9 0.00 0.00 0.00 38 1019.8
20260509151503 19 360 6.4 24.1 0.00 0.00 0.00 39 1020.0
20260509150001 20 360 6.4 24.1 0.00 0.00 0.00 40 1020.0
20260509144613 20 23 6.4 19.3 0.00 0.00 0.00 38 1020.1
20260509143057 20 360 4.8 19.3 0.00 0.00 0.00 39 1020.3
20260509141556 19 360 3.2 17.7 0.00 0.00 0.00 38 1020.3
20260509140107 19 22 4.8 9.7 0.00 0.00 0.00 37 1020.4
20260509134554 19 74 3.2 12.9 0.00 0.00 0.00 36 1020.6
20260509133101 20 28 3.2 12.9 0.00 0.00 0.00 36 1020.9
20260509131558 18 360 3.2 16.1 0.00 0.00 0.00 36 1020.9
20260509130059 19 30 4.8 16.1 0.00 0.00 0.00 36 1021.0
20260509124555 20 243 1.6 8.0 0.00 0.00 0.00 34 1021.2
20260509123048 20 360 4.8 11.3 0.00 0.00 0.00 33 1021.4
20260509121558 20 76 1.6 14.5 0.00 0.00 0.00 34 1021.4
20260509120046 20 132 3.2 9.7 0.00 0.00 0.00 38 1021.5
20260509114545 20 61 3.2 14.5 0.00 0.00 0.00 37 1021.7